Weather in Sorochiy Log

Russia / Altai Krai     53°34′36″N   84°08′37″E
temp.,
°C
wind,
m/s
gust,
m/s
humid.,
%
clouds,
%
prec.,
mm/h
press.,
hPa
HPBL,
m
27 february, sat
sat2701:00−22sw51196100 0.2 1039808
04:00−23sw41098100 0.2 1039575
07:00−23sw4998100 0.3 1039440
10:00−22sw5894100 0.1 1039448
13:00−21sw4893100 0.1 1039559
16:00−19sw4689100 0.1 1039716
19:00−21ssw3397100 0.1 103929
22:00−24ssw2396100 0.0 104023
28 february, sun
sun2801:00−27ssw239467 0.0 104019
04:00−27s22941 0.0 104019
07:00−26sse2310030 0.0 103919
10:00−22sse369266 0.0 1038139
13:00−15se468554 0.0 1035313
16:00−12sse478297 0.0 1031455
19:00−13se488898 0.0 1028247
22:00−10sse51195100 0.4 1025387
1 march, mon
mon101:00−8sse51095100 1.3 1021388
04:00−8s51095100 1.9 1018603
07:00−6ssw51596100 5.0 10141099
10:00−5sw91695100 4.9 10131103
13:00−4sw111792100 6.7 1012977
16:00−3sw101794100 0.3 1011888
19:00−3sw91796100 0.8 1010891
22:00−2sw101988100 0.7 1010939
2 march, tue
tue201:00−1wsw81495100 1.9 1012978
04:00−4wsw6149299 0.2 1013564
07:00−5sw61196100 0.5 1015447
10:00−6wsw61194100 0.4 1016510
13:00−4wsw71192100 0.9 1017772
16:00−4wsw5991100 0.2 1017748
19:00−7w2395100 0.3 101634
22:00−10nnw1196100 0.0 101621
3 march, wed
wed301:00−9e1196100 0.1 101421
04:00−7ene1297100 0.4 101239
07:00−7n2297100 1.2 101263
10:00−8wnw2296100 0.4 1013126
13:00−6wsw4694100 1.0 1014464
16:00−7wsw71092100 0.5 1016867
19:00−11wsw61193100 0.9 1019540
22:00−14wsw5995100 0.3 1021403